Regional Weather Roundup
Issued by NWS Bismarck, ND

Home | Current Version | Previous Version | Text Only | Print | Product List | Glossary On
Versions: 1 2 3 4 5 6 7 8 9 10 11 12 13 14 15 16 17 18 19 20 21 22 23 24 25 26 27 28 29 30 31 32 33 34 35 36 37 38 39 40 41 42 43 44 45 46 47 48 49 50
000
ASUS43 KBIS 300202
RWRBIS

NWR BROADCAST TEXT
NATIONAL WEATHER SERVICE BISMARCK ND
900 PM CDT FRI JUL 29 2016

NOTE: "FAIR" INDICATES FEW OR NO CLOUDS BELOW 12,000 FEET WITH NO
SIGNIFICANT WEATHER AND/OR OBSTRUCTIONS TO VISIBILITY.


CITY           SKY/WX    TMP DP  RH WIND       PRES   REMARKS
WILLISTON      CLEAR     77  50  38 E6        29.96F
MINOT          CLOUDY    78  60  53 SE3       29.96S
MINOT AFB      PTCLDY    73  61  65 NW2       29.94F
BISMARCK       PTCLDY    75  62  64 S8        29.98R
DICKINSON      CLEAR     70  59  68 E8        29.96S
GARRISON         N/A     71  62  73 E3        29.97S
HETTINGER ARPT PTCLDY    78  52  40 E9        29.99R
JAMESTOWN      MOCLDY    69  63  81 SE5       30.00R
CARRINGTON     FAIR      70  63  78 SE5       30.01S
HAZEN          MOCLDY    73  61  64 E3        29.98S
OAKES            N/A    N/A N/A N/A MISG        N/A
STANLEY        FAIR      72  64  78 CALM      30.00F
$$

CITY           SKY/WX    TMP DP  RH WIND       PRES   REMARKS
GRAND FORKS    PTCLDY    75  56  51 E5        29.98R
GRAND FORKS AF PTCLDY    73  55  54 S2        29.99S
DEVILS LAKE    CLOUDY    68  61  78 SW3       30.00S
FARGO          CLEAR     72  62  71 CALM      29.99S
CAVALIER       FAIR      72  55  56 SE5       29.98S
GRAFTON        FAIR      73  55  53 CALM      30.00S
GWINNER        FAIR      72  64  78 CALM      30.01S
LANGDON        FAIR      68  63  83 SE6       30.00S
ROLLA          FAIR      68  61  77 S6        30.00S
$$

CITY           SKY/WX    TMP DP  RH WIND       PRES   REMARKS
ABERDEEN       CLOUDY    73  63  70 SE6       29.99
MOBRIDGE       PTCLDY    77  59  53 SW5       29.96S
BUFFALO          N/A     79  52  38 E7        29.93R
RAPID CITY     CLEAR     73  56  54 SW8       30.02R
GLASGOW        CLEAR     76  57  51 E6        29.94S
SIDNEY         CLEAR     77  52  41 E3        29.96S
WOLF POINT     PTCLDY    79  53  40 CALM      29.95F
GLENDIVE       CLEAR     77  53  43 E5        29.97S
MILES CITY     CLEAR     79  55  43 NE8       29.95F
BAKER          CLEAR     78  56  46 NE7       29.99S
$$

CITY           SKY/WX    TMP DP  RH WIND       PRES   REMARKS
BILLINGS       PTCLDY    84  48  28 E8        29.98S
GREAT FALLS    CLEAR     83  45  26 E10       29.96F
$$




USA.gov is the U.S. government's official web portal to all federal, state and local government web resources and services.